Location: A?va
(36.5674°N, 30.5561°E)
Time: 15:01:50
(UTC+00:00)

Daily predictions for brighter satellites

Satellite Brightness Start Highest point End
(mag) Time Altitude Azimuth Time Altitude Azimuth Time Altitude Azimuth
Cosmos 2227 4.4 17:37:55 10° SSW 17:43:40 83° WNW 17:49:27 10° NNE
Cosmos 2221 Rocket 3.8 17:44:19 10° SSE 17:48:32 48° E 17:52:46 10° NNE
NOSS 2-2 (D) 4.0 17:46:09 10° S 17:49:16 25° ESE 17:51:59 10° ENE
SPOT 1/Viking Rocket 4.4 17:48:02 10° S 17:53:03 52° W 17:58:06 10° NNW
Cosmos 2098 Rocket 2.8 17:49:11 10° N 17:53:14 56° E 17:56:35 10° SSE
Cosmos 405 Rocket 3.4 17:50:25 10° NNW 17:53:57 51° W 17:57:26 10° S
Cosmos 923 Rocket 4.0 17:50:34 10° NNW 17:55:46 75° ENE 18:00:56 10° SSE
GP-B 4.1 17:52:10 10° NNE 17:55:57 28° E 17:59:43 10° SE
MOS 1-B Rocket 4.0 17:50:22 10° SSE 17:56:00 85° WSW 18:02:15 10° NNW
Lacrosse 5 2.7 17:52:36 10° SW 17:57:34 57° NW 18:02:33 10° NNE
Okean 1 Rocket 4.0 17:54:23 10° NNE 17:58:21 30° ENE 18:02:13 10° SE
Cosmos 1674 Rocket 3.4 17:54:07 10° S 17:58:22 73° E 18:02:40 10° N
CARTOSAT-1 3.5 17:54:32 10° SSE 17:58:48 90° ENE 18:03:05 10° NNW
DELTA 2 DEB (DPAF) 4.0 17:55:17 10° NNE 17:59:26 64° ESE 18:03:34 10° S
Sich 1 Rocket 3.8 17:57:04 10° N 18:01:25 52° E 18:05:47 10° SSE
ATLAS 5 CENTAUR R/B 2.1 17:58:20 10° SW 18:01:27 45° NW 18:04:45 10° NNE
Cosmos 1025 Rocket 3.9 17:58:06 10° SSE 18:01:47 29° E 18:05:28 10° NNE
Cosmos 1943 3.2 17:56:32 10° NNW 18:02:11 82° ENE 18:07:49 10° SSE
Cosmos 1844 Rocket 2.6 17:59:07 10° SSW 18:04:40 86° ESE 18:10:16 10° NNE
Resurs 01 Rocket 2.2 18:09:11 10° S 18:13:29 58° W 18:17:48 10° NNW
SWAS 4.3 18:11:01 10° SSW 18:15:08 65° ESE 18:19:18 10° NNE
Cosmos 2154 Rocket 4.4 18:12:52 10° SSE 18:18:47 44° E 18:24:43 10° NNE
CZ-4 R/B 3.7 18:16:39 10° SSW 18:19:54 23° W 18:23:07 10° NW
Cosmos 2074 Rocket 4.1 18:14:19 10° S 18:20:24 58° E 18:26:32 10° NNE
Okean O Rocket 1.8 18:16:45 10° S 18:21:02 73° WSW 18:25:21 10° NNW
SL-24 R/B 4.3 18:17:45 10° S 18:21:20 56° W 18:25:04 10° NNW
Okean 2 Rocket 3.1 18:18:15 10° N 18:22:45 85° W 18:27:12 10° S
Cosmos 2151 Rocket 3.8 18:19:38 10° N 18:24:03 73° W 18:28:28 10° S
CSL-04 Rocket 4.2 18:19:17 10° S 18:24:39 60° W 18:30:06 10° NNW
Cosmos 1680 Rocket 3.6 18:20:46 10° NNW 18:26:01 79° WSW 18:31:00 11° SSE
Cosmos 1603 3.7 18:22:10 10° NNW 18:27:53 82° ENE 18:32:30 16° SSE
PSLV R/B 3.9 18:25:01 10° S 18:28:29 63° WSW 18:32:01 10° NNW
Ariane Rocket 4.4 18:27:09 15° ESE 18:29:44 22° ENE 18:33:34 10° NNE
USA 215 3.5 18:28:31 16° ESE 18:33:48 62° NE 18:40:15 10° NW
Cosmos 1607 4.4 18:28:13 10° NW 18:34:26 59° WSW 18:39:52 13° SSE
SPOT 5 3.0 18:30:59 18° SSE 18:34:33 63° ENE 18:39:34 10° N
MOS 1 Rocket 4.3 18:32:30 20° ESE 18:34:48 29° ENE 18:38:43 10° NNE
NOSS 2-3 (D) 3.0 18:33:56 10° SSW 18:37:38 86° ESE 18:41:25 10° NNE
Cosmos 2112 Rocket 4.3 18:37:30 10° NNW 18:42:41 66° WSW 18:47:01 15° S
IRS-1A Rocket 4.5 18:39:11 20° SE 18:42:56 58° ENE 18:48:34 10° N
Cosmos 921 Rocket 3.7 18:39:36 10° N 18:43:30 37° ENE 18:45:03 27° ESE
Timation 2 Rocket 3.9 18:37:46 10° SSW 18:44:11 75° ESE 18:50:21 10° NNE
ARGOS Delta rocket 4.4 18:42:51 10° S 18:47:19 54° W 18:52:04 10° NNW
Cosmos 494 Rocket 4.1 18:42:30 10° N 18:47:42 61° ENE 18:50:31 27° SE
Okean-O 2.9 18:45:17 16° S 18:48:43 67° WSW 18:53:07 10° NNW
NOSS 3-1 (C) 4.3 18:49:57 18° E 18:49:57 18° E 18:52:33 10° ENE
OAO 2 Rocket 3.7 18:45:17 10° W 18:50:18 50° SSW 18:52:41 29° SE
Cosmos 1125 Rocket 3.6 18:46:49 14° S 18:51:10 53° ESE 18:56:19 10° NNE
Geosat 4.2 18:49:57 10° NE 18:54:46 46° ESE 18:57:46 21° S
SPOT 3 Rocket 4.2 18:57:54 28° ESE 18:59:55 40° ENE 19:04:46 10° N
CZ-4C R/B 3.8 18:57:49 10° N 19:01:22 51° WNW 19:04:27 12° SSW
In-Cosmos 22 Rocket 4.2 19:02:31 14° S 19:07:34 89° ENE 19:13:15 10° N
Nadezhda 3 Rocket 3.9 19:06:00 10° N 19:12:11 84° E 19:15:33 29° S
SL-8 Rocket 4.5 19:10:57 32° SE 19:13:00 41° E 19:18:50 10° NNE
Terra 1.7 19:13:57 40° SSE 19:15:40 83° ENE 19:20:24 10° N
Hubble Space Telescope 2.4 19:14:56 10° WSW 19:16:52 20° SW 19:16:52 20° SW
Cosmos 2327 Rocket 4.4 19:15:35 24° S 19:19:30 82° E 19:25:48 10° N
Cosmos 1544 Rocket 4.3 19:17:00 10° NNE 19:20:57 34° ENE 19:21:00 34° E
H-II Stage 2 3.6 19:19:29 10° WSW 19:22:54 34° S 19:23:25 33° SSE
Cosmos 1437 Rocket 3.5 19:32:35 36° NE 19:32:35 36° NE 19:35:03 10° NNE
Cosmos 962 Rocket 4.4 19:30:18 32° S 19:33:22 85° E 19:39:34 10° N
Meteor 2-1 Rocket 4.1 19:29:17 10° N 19:34:54 89° E 19:36:36 47° S
Cosmos 1833 Rocket 3.5 19:30:15 10° N 19:35:28 37° ENE 19:36:42 33° E
ATLAS CENTAUR R/B 1.3 19:31:49 10° NNW 19:35:52 72° ENE 19:35:58 71° ENE
Cosmos 1975 Rocket 4.2 19:35:44 20° SW 19:38:23 41° W 19:42:37 10° N
Cosmos 44 3.6 19:33:10 10° SW 19:38:29 75° WNW 19:43:38 10° NNE
Cosmos 468 4.4 19:33:39 10° NNW 19:39:00 89° ENE 19:40:11 56° SSE
ERS-1 Rocket 3.7 19:38:07 30° SSW 19:40:09 46° W 19:44:58 10° NNW
Cosmos 2218 Rocket 4.0 19:38:57 47° SE 19:40:22 58° E 19:46:23 10° NNE
Spot 2 Rocket 3.7 19:39:22 43° SSW 19:40:55 66° WSW 19:46:01 10° NNW
Cosmos 1455 Rocket 4.1 19:37:15 10° NNW 19:41:22 41° W 19:42:42 32° SW
Spot 1 4.3 19:39:37 10° NNE 19:44:44 75° ESE 19:45:24 64° SSE
Cosmos 2082 Rocket 4.3 19:45:22 10° NNE 19:48:06 14° NE 19:49:50 12° ENE
Cosmos 2278 Rocket 2.4 19:49:26 49° E 19:49:26 49° E 19:54:42 10° NNE
Cosmos 2341 Rocket 3.9 19:48:47 41° S 19:51:10 87° W 19:57:32 10° N
Cosmos 220 Rocket 4.2 19:48:12 10° NNW 19:51:52 59° NNE 19:51:52 59° NNE
Cosmos 2298 Rocket 4.1 19:53:06 40° SW 19:55:01 73° WNW 20:00:21 10° NNE
MetOp-A 3.8 19:57:03 63° ENE 19:57:03 63° ENE 20:01:21 10° N
Landsat 5 3.6 19:53:33 10° N 19:57:58 78° WNW 19:57:59 77° W
Cosmos 1606 4.0 20:01:30 10° NNW 20:04:09 34° WNW 20:04:09 34° WNW
Cosmos 614 Rocket 4.4 20:00:01 10° N 20:04:48 47° ENE 20:04:48 47° ENE
Ariane Rocket 3.9 20:07:17 34° SW 20:08:22 38° W 20:13:05 10° NNW
Cosmos 1536 Rocket 3.8 20:10:07 64° NNW 20:10:07 64° NNW 20:13:53 10° N
ATLAS 3B R/B 3.0 20:14:16 48° ESE 20:14:16 48° ESE 20:21:02 10° NE
USA 215 4.1 20:15:52 31° SW 20:16:57 33° SW 20:22:46 10° WNW
ARIANE 5 R/B 3.8 20:21:27 35° NE 20:21:27 35° NE 20:24:38 10° N
Cosmos 1727 Rocket 4.2 20:17:33 10° N 20:23:47 56° E 20:24:04 56° E
Cosmos 1821 Rocket 3.8 20:25:12 74° SSE 20:25:43 80° E 20:32:04 10° N
Cosmos 1943 Rocket 2.5 20:26:53 55° ENE 20:26:53 55° ENE 20:31:35 10° NNE
Cosmos 2228 4.2 20:28:24 10° NNW 20:31:33 36° WNW 20:31:33 36° WNW
NOSS 3-1 (C) 4.1 20:37:12 28° W 20:39:06 40° NW 20:44:18 10° NNE
SeaSat 1 3.9 20:47:14 28° NE 20:47:14 28° NE 20:51:16 10° N
NOSS 3-1 (A) 3.8 21:16:36 46° NW 21:16:36 46° NW 21:21:45 10° NNE
Cosmos 1833 Rocket 4.2 21:14:31 10° NW 21:18:22 26° W 21:18:22 26° W
Cosmos 2123 Rocket 4.0 21:17:20 10° N 21:23:11 74° NE 21:23:11 74° NE
Cosmos 2082 Rocket 2.7 21:27:14 10° NNW 21:31:39 57° NNW 21:31:39 57° NNW
Cosmos 2278 Rocket 4.2 21:31:13 17° W 21:33:34 22° WNW 21:37:54 10° N
Cosmos 2369 Rocket 3.5 21:37:51 31° ENE 21:37:51 31° ENE 21:41:07 10° NE
USA 229 DEB 3.7 21:44:54 60° NE 21:44:54 60° NE 21:50:16 10° NE
USA 229 3.8 21:45:03 60° NE 21:45:03 60° NE 21:50:23 10° NE
CZ-4C R/B 3.6 21:50:23 10° NNW 21:57:43 53° NE 22:00:34 39° ESE
COSMOS 2406 4.1 21:56:50 10° NNW 22:00:48 43° NW 22:00:48 43° NW
ATLAS 3B R/B 4.0 22:01:26 24° W 22:04:53 36° NW 22:11:45 10° NNE
USA 281 3.1 22:09:48 82° NNE 22:09:48 82° NNE 22:16:09 10° NNW
Cosmos 1943 Rocket 4.3 22:08:20 15° WNW 22:10:11 18° NW 22:13:54 10° NNW
Cosmos 2285 Rocket 4.5 22:04:25 10° N 22:10:41 53° ENE 22:10:46 53° ENE
Meteor 2-3 Rocket 4.4 22:21:26 47° NW 22:21:26 47° NW 22:26:05 10° N
SeaSat 1 4.4 22:26:56 21° WNW 22:26:56 21° WNW 22:28:50 10° NW
H-2A R/B 4.1 22:22:49 10° N 22:24:34 24° N 22:24:34 24° N
Cosmos 1459 Rocket 4.2 22:31:47 62° ENE 22:31:47 62° ENE 22:37:39 10° NNE
BREEZE-M DEB (TANK) 4.2 22:14:55 10° WSW 22:31:53 61° NW 22:36:07 10° NE
USA 234 3.3 22:28:16 10° NE 22:34:08 66° E 22:34:08 66° E
Cosmos 2100 Rocket 4.0 22:40:39 74° NNE 22:40:39 74° NNE 22:46:16 10° N
Lacrosse 5 rocket 3.7 22:44:25 20° NNE 22:44:25 20° NNE 22:45:49 10° NNE
Cosmos 1802 Rocket 4.3 22:43:14 59° E 22:43:14 59° E 22:49:09 10° NNE
Nimbus 7 Rocket 4.5 22:48:37 10° NNE 22:54:09 75° NNW 22:54:09 75° NNW
ASTEX 1 4.3 22:56:37 44° NE 22:56:37 44° NE 23:00:32 10° N
Cosmos 2173 Rocket 4.1 23:05:22 63° WNW 23:05:22 63° WNW 23:10:58 10° N
SJ 16-02 4.1 23:03:44 10° NE 23:05:31 12° ENE 23:07:15 10° E
CZ-2D R/B 3.7 23:03:01 10° NE 23:07:07 24° E 23:07:07 24° E
Cosmos 1452 Rocket 4.0 23:11:08 57° NE 23:11:08 57° NE 23:15:26 10° NNE
Meteor 2-15 Rocket 4.4 23:11:01 71° NW 23:11:01 71° NW 23:16:46 10° N
CENTAUR R/B 4.0 23:05:23 10° NNW 23:13:38 50° NE 23:22:36 10° SE
DELTA 2 R/B (1) 4.5 23:15:47 39° E 23:15:47 39° E 23:19:20 10° ENE
NPP 4.4 23:11:07 10° NNE 23:16:02 44° E 23:16:02 44° E
Lacrosse 4 Rocket 3.5 23:20:40 20° NNW 23:20:40 20° NNW 23:22:45 10° N
Cosmos 2369 Rocket 3.7 23:19:37 24° WNW 23:20:01 24° WNW 23:24:31 10° N
MOZ.5/SAFIR/RUBIN 5/SL-8 4.5 23:22:47 50° NE 23:22:47 50° NE 23:26:40 10° N
MSX 4.2 23:21:09 10° NNE 23:26:47 52° E 23:27:05 51° ESE
BREEZE M DEB (TANK) 3.7 23:21:56 10° NW 23:33:49 87° SW 23:33:53 87° S
Cosmos 1331 Rocket 4.2 23:39:12 62° NW 23:39:12 62° NW 23:43:52 10° NNE
ALOS 4.2 23:41:30 10° NE 23:44:47 19° E 23:45:42 18° ESE
CZ-4C R/B 3.7 23:39:05 10° NW 23:45:35 38° WSW 23:45:35 38° WSW
COSMOS 2455 2.7 23:40:33 10° NNW 23:46:36 81° WSW 23:46:54 78° SSW
Resurs 1-4 Rocket 2.2 23:42:31 10° NNE 23:47:49 66° ESE 23:48:07 64° ESE
Tiangong 1.0 23:51:03 12° ENE 23:51:03 12° ENE 23:51:21 10° ENE
Meteor 1-20 Rocket 4.1 23:48:13 72° W 23:48:17 72° W 23:53:56 10° N
Cosmos 1741 Rocket 3.9 23:47:49 10° NNW 23:53:07 84° ENE 23:53:19 81° ESE
ADEOS II 2.7 23:48:47 10° NNE 23:53:49 45° E 23:54:39 41° SE
